Regional Weather Roundup
Issued by NWS

Home | Current Version | Previous Version | Graphics & Text | Print | Product List | Glossary Off
Versions: 1 2 3 4 5 6 7 8 9 10 11 12 13 14 15 16 17 18 19 20 21 22 23 24 25 26 27 28 29 30 31 32 33 34 35 36 37 38 39 40 41 42 43 44 45 46 47 48 49 50

000
ASUS43 KDMX 192207
RWRIA

WEATHER ROUNDUP FOR IOWA
NATIONAL WEATHER SERVICE DES MOINES IA
500 PM CDT TUE AUG 19 2014

NOTE: "FAIR" INDICATES FEW OR NO CLOUDS BELOW 12,000 FEET WITH NO
SIGNIFICANT WEATHER AND/OR OBSTRUCTIONS TO VISIBILITY.

* - THESE STATIONS ARE NOT NWS STATIONS...THUS NOT UNDER NWS
QUALITY CONTROL.  THEY ALSO DO NOT REPORT WEATHER SUCH
AS PRECIPITATION OR FOG.

IAZ001>003-012>014-020>022-031>034-043>046-192300-
   NORTHWEST IOWA

CITY           SKY/WX    TMP DP  RH WIND       PRES   REMARKS
CARROLL *      MOSUNNY   82  66  57 VRB3      29.80F HX  85
CHEROKEE *     MOSUNNY   81  64  57 W5        29.81S HX  82
DENISON *      SUNNY     82  66  57 N6        29.79F HX  85
LE MARS *      SUNNY     82  64  54 W5        29.80F HX  84
ORANGE CITY *  SUNNY     82  61  47 CALM      29.81F HX  83
SHELDON *      MOSUNNY   81  66  61 W6        29.80S HX  83
SIOUX CITY     SUNNY     85  64  49 VRB3      29.79F HX  86
SPENCER        SUNNY     83  65  54 W7        29.80F HX  85
STORM LAKE *   SUNNY     81  68  65 W7        29.82S HX  83
$$

IAZ055>058-069>071-079>083-090>094-192300-
   SOUTHWEST IOWA

CITY           SKY/WX    TMP DP  RH WIND       PRES   REMARKS
ATLANTIC *     SUNNY     84  64  51 CALM      29.79F HX  86
AUDUBON *      SUNNY     86  70  58 CALM      29.82S HX  90
CLARINDA *     SUNNY     86  66  51 VRB3      29.82R HX  88
COUNCIL BLFS * SUNNY     86  63  45 CALM      29.80R HX  87
CRESTON *      SUNNY     82  66  57 W3        29.81F HX  85
HARLAN  *      MOSUNNY   84  64  51 CALM      29.83F HX  86
LAMONI         SUNNY     86  64  47 CALM      29.80F HX  87
RED OAK *      SUNNY     86  66  51 SW5       29.81R HX  88
SHENANDOAH *   SUNNY     86  68  54 S5        29.81S HX  89
$$

IAZ047>049-059>061-072>074-084-192300-
   CENTRAL IOWA

CITY           SKY/WX    TMP DP  RH WIND       PRES   REMARKS
AMES           SUNNY     83  63  50 NW9       29.79F HX  84
ANKENY *       SUNNY     84  64  51 VRB6      29.79S HX  86
CHARITON *     SUNNY     82  66  57 NW7       29.80S HX  85
DES MOINES     MOSUNNY   86  64  47 W8        29.78F HX  87
GRINNELL*      MOSUNNY   82  64  54 W6        29.80S HX  84
KNOXVILLE *    MOSUNNY   82  66  57 W9        29.78S HX  85
MARSHALLTOWN   MOSUNNY   83  63  50 NW9       29.78F HX  84
PELLA *        MOSUNNY   86  63  45 W3        29.80S HX  87
PERRY *          N/A     82  64  54 NW5       29.80S HX  84
$$

IAZ004>006-015-016-023>025-035-036-192300-
   NORTH CENTRAL IOWA

CITY           SKY/WX    TMP DP  RH WIND       PRES   REMARKS
ALGONA *       SUNNY     82  64  54 W8        29.79S HX  84
CLARION *      MOSUNNY   82  64  54 W10       29.79S HX  84
ESTHERVILLE    PTSUNNY   80  65  59 W6        29.79S HX  82
FORT DODGE *   MOSUNNY   82  64  54 W7        29.80F HX  84
MASON CITY     MOSUNNY   81  63  54 NW7       29.79F HX  82
FOREST CITY *  PTSUNNY   81  63  54 W7        29.79S HX  82
IOWA FALLS *     N/A     81  63  54 NW7       29.80S HX  82
$$

IAZ007>011-017>019-026>030-037>042-050>054-066-192300-
   NORTHEAST IOWA

CITY           SKY/WX    TMP DP  RH WIND       PRES   REMARKS
CEDAR RAPIDS   SUNNY     82  65  56 NW12      29.77R HX  84
CHARLES CITY * SUNNY     79  63  57 W10       29.78S HX  80
CLINTON *      MOSUNNY   82  64  54 NW13      29.77R HX  84
DECORAH *      PTSUNNY   77  64  65 NW6G13    29.76R
DUBUQUE        MOSUNNY   81  62  52 W15G23    29.76R HX  82
MONTICELLO *   MOSUNNY   84  63  48 NW16      29.75S HX  85
OELWEIN *      MOSUNNY   81  63  54 W12G18    29.78S HX  82
WATERLOO       SUNNY     82  61  48 NW13      29.76F HX  83
$$

IAZ064-065-067-068-078-192300-
   EAST CENTRAL IOWA

CITY           SKY/WX    TMP DP  RH WIND       PRES   REMARKS
DAVENPORT      SUNNY     83  64  52 W14       29.76R HX  84
IOWA CITY      SUNNY     85  64  49 W10       29.77S HX  86
MT. PLEASANT * MOSUNNY   88  61  40 W10       29.77F HX  88
MUSCATINE *    SUNNY     86  64  48 W13       29.76S HX  87
QUAD CITIES    SUNNY     86  63  45 W14       29.74R HX  87
$$

IAZ062-063-075>077-085>089-095>099-192300-
   SOUTHEAST IOWA

CITY           SKY/WX    TMP DP  RH WIND       PRES   REMARKS
BURLINGTON     MOSUNNY   85  68  56 W7        29.76F HX  88
FAIRFIELD *    SUNNY     84  63  48 W13G18    29.78F HX  85
FORT MADISON * MOSUNNY   84  72  65 CALM      29.78S HX  89
KEOKUK *       PTSUNNY   82  75  78 SW10      29.77S HX  89
OSKALOOSA *      N/A     84  64  51 W10       29.79S HX  86
CENTERVILLE *  SUNNY     84  68  58 NW3       29.81F HX  87
OTTUMWA        SUNNY     84  65  52 NW8       29.79S HX  86
WASHINGTON *   SUNNY     84  68  58 NW9G17    29.78S HX  87
$$

ABBREVIATIONS USED IN REMARKS
   TC - TEMPERATURES IN CELSIUS
  WCI - WIND CHILL INDEX
   HX - HEAT INDEX
  VSB - VISIBILITY
$$




USA.gov is the U.S. government's official web portal to all federal, state and local government web resources and services.